Aviation Digital Data Service (ADDS)

Output produced by METARs form (1251 UTC 21 February 2018)
found at http://www.aviationweather.gov/adds/metars/
 
TAF OIAA 201100Z 2012/2118 29004MPS 3000 DU HZ FEW040 
     TEMPO 2115/2118 34004MPS FEW030CB SCT035 SCT090
       
OIAW 211230Z 03004KT 5000 HZ FEW035 SCT040 23/10 Q1011
TAF OIAW 201100Z 2012/2118 01003MPS 4000 DU HZ FEW040 
     TEMPO 2112/2118 34004MPS FEW030CB SCT035 SCT090
       
OITL 211230Z 07014KT 0500 R15/P2000N R33/P2000N FG SCT002 FEW040CB SCT090 BKN170 03/03 Q1014
TAF OIAA 201100Z 2012/2118 29004MPS 3000 DU HZ FEW040 
     TEMPO 2115/2118 34004MPS FEW030CB SCT035 SCT090
       
OIAW 211230Z 03004KT 5000 HZ FEW035 SCT040 23/10 Q1011
TAF OIAW 201100Z 2012/2118 01003MPS 4000 DU HZ FEW040 
     TEMPO 2112/2118 34004MPS FEW030CB SCT035 SCT090
       
TAF OIBK 201100Z 2012/2118 30008MPS 6000 NSC 
     BECMG 2018/2020 3000 HZ/BR 
     TEMPO 2021/2024 0800 FG SCT020 BKN090 
     BECMG 2104/2106 7000 
     TEMPO 2106/2112 30009G14MPS 4000 SA
       
OIBP 211230Z 26006KT 5000 HZ NSC 26/13 Q1008 A2979
OICC 211230Z 00000KT 9999 SCT045 15/M03 Q1015 A2998 NOSIG
TAF OICI 201100Z 2012/2118 14004MPS 7000 FEW030 BKN090 
     TEMPO 2018/2021 3000 BR
       
OICK 211230Z 10004KT 9999 FEW040 14/03 Q1016
OIFM 211230Z 25012KT 9999 SCT040 18/M03 Q1014 A2996
TAF OIFM 201100Z 2012/2118 33004MPS CAVOK 
     TEMPO 2109/2118 FEW030TCU SCT035 BKN100
       
OIGG 211230Z 05006KT 8000 FEW012CB BKN020 OVC080 10/09 Q1020
OIIE 211230Z 12004KT 9999 FEW040 SCT100 BKN200 13/M01 Q1016
TAF OIIE 201100Z 2012/2118 32005MPS CAVOK 
     TEMPO 2103/2115 13005MPS 7000 FEW035TCU SCT040 BKN100
       
OIII 211230Z 22008KT 7000 FEW035TCU SCT040 BKN090 13/M01 Q1016 A3001
TAF OIII 201100Z 2012/2118 33004MPS CAVOK 
     TEMPO 2106/2115 FEW035TCU SCT040 BKN100
       
OIKB 211230Z 21012KT 5000 HZ NSC 25/12 Q1010 A2984
TAF OIKB 201100Z 2012/2118 21004MPS 5000 HZ NSC 
     TEMPO 2012/2018 21009MPS 3000 SA 
     TEMPO 2020/2105 3000 HZ/BR
       
TAF OIKK 201100Z 2012/2118 30004MPS 7000 NSC
       
OIMM 211230Z 14006KT 2500 HZ SCT020 OVC200 12/06 Q1017 A3005
TAF OIMM 201100Z 2012/2118 14004MPS 6000 BKN010 BKN080 
     BECMG 2015/2017 4000 BR 
     TEMPO 2020/2103 1000 BR 
     BECMG 2104/2106 FEW035 SCT100
       
TAF OISL 201100Z 2012/2118 32003MPS CAVOK 
     TEMPO 2115/2118 14006MPS FEW035CB SCT040 SCT100
       
OISS 211230Z 00000KT 9999 FEW035CB SCT040 OVC090 19/M04 Q1016 A3002
TAF OISS 201100Z 2012/2118 21003MPS CAVOK
       
OITL 211230Z 07014KT 0500 R15/P2000N R33/P2000N FG SCT002 FEW040CB SCT090 BKN170 03/03 Q1014
OITR 211230Z 05008KT 9999 SCT035 BKN160 09/01 Q1014
TAF OITR 201100Z 2012/2118 34004MPS 7000 FEW035 SCT100
       
OITT 211230Z 27004KT 9999 SCT035 SCT040CB 09/01 Q1015 A2999
TAF OITT 201100Z 2012/2118 34004MPS 7000 FEW035 SCT100 
     TEMPO 2115/2118 34004MPS FEW030CB SCT035 BKN090
       
OIYY 211230Z 06002KT 9999 FEW040 SCT190 21/M09 Q1015
TAF OIZH 201100Z 2012/2118 22005MPS 7000 NSC 
     TEMPO 2012/2015 22010MPS 4000 SA
       
TAF OIAA 201100Z 2012/2118 29004MPS 3000 DU HZ FEW040 
     TEMPO 2115/2118 34004MPS FEW030CB SCT035 SCT090
       
OIAW 211230Z 03004KT 5000 HZ FEW035 SCT040 23/10 Q1011
TAF OIAW 201100Z 2012/2118 01003MPS 4000 DU HZ FEW040 
     TEMPO 2112/2118 34004MPS FEW030CB SCT035 SCT090
       
TAF OIBK 201100Z 2012/2118 30008MPS 6000 NSC 
     BECMG 2018/2020 3000 HZ/BR 
     TEMPO 2021/2024 0800 FG SCT020 BKN090 
     BECMG 2104/2106 7000 
     TEMPO 2106/2112 30009G14MPS 4000 SA
       
OIBP 211230Z 26006KT 5000 HZ NSC 26/13 Q1008 A2979
OICC 211230Z 00000KT 9999 SCT045 15/M03 Q1015 A2998 NOSIG
TAF OICI 201100Z 2012/2118 14004MPS 7000 FEW030 BKN090 
     TEMPO 2018/2021 3000 BR
       
OICK 211230Z 10004KT 9999 FEW040 14/03 Q1016
OIFM 211230Z 25012KT 9999 SCT040 18/M03 Q1014 A2996
TAF OIFM 201100Z 2012/2118 33004MPS CAVOK 
     TEMPO 2109/2118 FEW030TCU SCT035 BKN100
       
OIGG 211230Z 05006KT 8000 FEW012CB BKN020 OVC080 10/09 Q1020
OIIE 211230Z 12004KT 9999 FEW040 SCT100 BKN200 13/M01 Q1016
TAF OIIE 201100Z 2012/2118 32005MPS CAVOK 
     TEMPO 2103/2115 13005MPS 7000 FEW035TCU SCT040 BKN100
       
OIII 211230Z 22008KT 7000 FEW035TCU SCT040 BKN090 13/M01 Q1016 A3001
TAF OIII 201100Z 2012/2118 33004MPS CAVOK 
     TEMPO 2106/2115 FEW035TCU SCT040 BKN100
       
OIKB 211230Z 21012KT 5000 HZ NSC 25/12 Q1010 A2984
TAF OIKB 201100Z 2012/2118 21004MPS 5000 HZ NSC 
     TEMPO 2012/2018 21009MPS 3000 SA 
     TEMPO 2020/2105 3000 HZ/BR
       
TAF OIKK 201100Z 2012/2118 30004MPS 7000 NSC
       
OIMM 211230Z 14006KT 2500 HZ SCT020 OVC200 12/06 Q1017 A3005
TAF OIMM 201100Z 2012/2118 14004MPS 6000 BKN010 BKN080 
     BECMG 2015/2017 4000 BR 
     TEMPO 2020/2103 1000 BR 
     BECMG 2104/2106 FEW035 SCT100
       
TAF OISL 201100Z 2012/2118 32003MPS CAVOK 
     TEMPO 2115/2118 14006MPS FEW035CB SCT040 SCT100
       
OISS 211230Z 00000KT 9999 FEW035CB SCT040 OVC090 19/M04 Q1016 A3002
TAF OISS 201100Z 2012/2118 21003MPS CAVOK
       
OITL 211230Z 07014KT 0500 R15/P2000N R33/P2000N FG SCT002 FEW040CB SCT090 BKN170 03/03 Q1014
OITR 211230Z 05008KT 9999 SCT035 BKN160 09/01 Q1014
TAF OITR 201100Z 2012/2118 34004MPS 7000 FEW035 SCT100
       
OITT 211230Z 27004KT 9999 SCT035 SCT040CB 09/01 Q1015 A2999
TAF OITT 201100Z 2012/2118 34004MPS 7000 FEW035 SCT100 
     TEMPO 2115/2118 34004MPS FEW030CB SCT035 BKN090
       
OIYY 211230Z 06002KT 9999 FEW040 SCT190 21/M09 Q1015
TAF OIZH 201100Z 2012/2118 22005MPS 7000 NSC 
     TEMPO 2012/2015 22010MPS 4000 SA
       
OIKB 211230Z 21012KT 5000 HZ NSC 25/12 Q1010 A2984
TAF OIKB 201100Z 2012/2118 21004MPS 5000 HZ NSC 
     TEMPO 2012/2018 21009MPS 3000 SA 
     TEMPO 2020/2105 3000 HZ/BR
       
TAF OIAA 201100Z 2012/2118 29004MPS 3000 DU HZ FEW040 
     TEMPO 2115/2118 34004MPS FEW030CB SCT035 SCT090
       
OIAW 211230Z 03004KT 5000 HZ FEW035 SCT040 23/10 Q1011
TAF OIAW 201100Z 2012/2118 01003MPS 4000 DU HZ FEW040 
     TEMPO 2112/2118 34004MPS FEW030CB SCT035 SCT090
       
TAF OIBK 201100Z 2012/2118 30008MPS 6000 NSC 
     BECMG 2018/2020 3000 HZ/BR 
     TEMPO 2021/2024 0800 FG SCT020 BKN090 
     BECMG 2104/2106 7000 
     TEMPO 2106/2112 30009G14MPS 4000 SA
       
OIBP 211230Z 26006KT 5000 HZ NSC 26/13 Q1008 A2979
OICC 211230Z 00000KT 9999 SCT045 15/M03 Q1015 A2998 NOSIG
TAF OICI 201100Z 2012/2118 14004MPS 7000 FEW030 BKN090 
     TEMPO 2018/2021 3000 BR
       
OICK 211230Z 10004KT 9999 FEW040 14/03 Q1016
OIFM 211230Z 25012KT 9999 SCT040 18/M03 Q1014 A2996
TAF OIFM 201100Z 2012/2118 33004MPS CAVOK 
     TEMPO 2109/2118 FEW030TCU SCT035 BKN100
       
OIGG 211230Z 05006KT 8000 FEW012CB BKN020 OVC080 10/09 Q1020
OIIE 211230Z 12004KT 9999 FEW040 SCT100 BKN200 13/M01 Q1016
TAF OIIE 201100Z 2012/2118 32005MPS CAVOK 
     TEMPO 2103/2115 13005MPS 7000 FEW035TCU SCT040 BKN100
       
OIII 211230Z 22008KT 7000 FEW035TCU SCT040 BKN090 13/M01 Q1016 A3001
TAF OIII 201100Z 2012/2118 33004MPS CAVOK 
     TEMPO 2106/2115 FEW035TCU SCT040 BKN100
       
OIKB 211230Z 21012KT 5000 HZ NSC 25/12 Q1010 A2984
TAF OIKB 201100Z 2012/2118 21004MPS 5000 HZ NSC 
     TEMPO 2012/2018 21009MPS 3000 SA 
     TEMPO 2020/2105 3000 HZ/BR
       
TAF OIKK 201100Z 2012/2118 30004MPS 7000 NSC
       
OIMM 211230Z 14006KT 2500 HZ SCT020 OVC200 12/06 Q1017 A3005
TAF OIMM 201100Z 2012/2118 14004MPS 6000 BKN010 BKN080 
     BECMG 2015/2017 4000 BR 
     TEMPO 2020/2103 1000 BR 
     BECMG 2104/2106 FEW035 SCT100
       
TAF OISL 201100Z 2012/2118 32003MPS CAVOK 
     TEMPO 2115/2118 14006MPS FEW035CB SCT040 SCT100
       
OISS 211230Z 00000KT 9999 FEW035CB SCT040 OVC090 19/M04 Q1016 A3002
TAF OISS 201100Z 2012/2118 21003MPS CAVOK
       
OITL 211230Z 07014KT 0500 R15/P2000N R33/P2000N FG SCT002 FEW040CB SCT090 BKN170 03/03 Q1014
OITR 211230Z 05008KT 9999 SCT035 BKN160 09/01 Q1014
TAF OITR 201100Z 2012/2118 34004MPS 7000 FEW035 SCT100
       
OITT 211230Z 27004KT 9999 SCT035 SCT040CB 09/01 Q1015 A2999
TAF OITT 201100Z 2012/2118 34004MPS 7000 FEW035 SCT100 
     TEMPO 2115/2118 34004MPS FEW030CB SCT035 BKN090
       
OIYY 211230Z 06002KT 9999 FEW040 SCT190 21/M09 Q1015
TAF OIZH 201100Z 2012/2118 22005MPS 7000 NSC 
     TEMPO 2012/2015 22010MPS 4000 SA
       
TAF OIAA 201100Z 2012/2118 29004MPS 3000 DU HZ FEW040 
     TEMPO 2115/2118 34004MPS FEW030CB SCT035 SCT090
       
OIAW 211230Z 03004KT 5000 HZ FEW035 SCT040 23/10 Q1011
TAF OIAW 201100Z 2012/2118 01003MPS 4000 DU HZ FEW040 
     TEMPO 2112/2118 34004MPS FEW030CB SCT035 SCT090
       
TAF OIBK 201100Z 2012/2118 30008MPS 6000 NSC 
     BECMG 2018/2020 3000 HZ/BR 
     TEMPO 2021/2024 0800 FG SCT020 BKN090 
     BECMG 2104/2106 7000 
     TEMPO 2106/2112 30009G14MPS 4000 SA
       
OIBP 211230Z 26006KT 5000 HZ NSC 26/13 Q1008 A2979
OICC 211230Z 00000KT 9999 SCT045 15/M03 Q1015 A2998 NOSIG
TAF OICI 201100Z 2012/2118 14004MPS 7000 FEW030 BKN090 
     TEMPO 2018/2021 3000 BR
       
OICK 211230Z 10004KT 9999 FEW040 14/03 Q1016
OIFM 211230Z 25012KT 9999 SCT040 18/M03 Q1014 A2996
TAF OIFM 201100Z 2012/2118 33004MPS CAVOK 
     TEMPO 2109/2118 FEW030TCU SCT035 BKN100
       
OIGG 211230Z 05006KT 8000 FEW012CB BKN020 OVC080 10/09 Q1020
OIIE 211230Z 12004KT 9999 FEW040 SCT100 BKN200 13/M01 Q1016
TAF OIIE 201100Z 2012/2118 32005MPS CAVOK 
     TEMPO 2103/2115 13005MPS 7000 FEW035TCU SCT040 BKN100
       
OIII 211230Z 22008KT 7000 FEW035TCU SCT040 BKN090 13/M01 Q1016 A3001
TAF OIII 201100Z 2012/2118 33004MPS CAVOK 
     TEMPO 2106/2115 FEW035TCU SCT040 BKN100
       
OIKB 211230Z 21012KT 5000 HZ NSC 25/12 Q1010 A2984
TAF OIKB 201100Z 2012/2118 21004MPS 5000 HZ NSC 
     TEMPO 2012/2018 21009MPS 3000 SA 
     TEMPO 2020/2105 3000 HZ/BR
       
TAF OIKK 201100Z 2012/2118 30004MPS 7000 NSC
       
OIMM 211230Z 14006KT 2500 HZ SCT020 OVC200 12/06 Q1017 A3005
TAF OIMM 201100Z 2012/2118 14004MPS 6000 BKN010 BKN080 
     BECMG 2015/2017 4000 BR 
     TEMPO 2020/2103 1000 BR 
     BECMG 2104/2106 FEW035 SCT100
       
TAF OISL 201100Z 2012/2118 32003MPS CAVOK 
     TEMPO 2115/2118 14006MPS FEW035CB SCT040 SCT100
       
OISS 211230Z 00000KT 9999 FEW035CB SCT040 OVC090 19/M04 Q1016 A3002
TAF OISS 201100Z 2012/2118 21003MPS CAVOK
       
OITL 211230Z 07014KT 0500 R15/P2000N R33/P2000N FG SCT002 FEW040CB SCT090 BKN170 03/03 Q1014
OITR 211230Z 05008KT 9999 SCT035 BKN160 09/01 Q1014
TAF OITR 201100Z 2012/2118 34004MPS 7000 FEW035 SCT100
       
OITT 211230Z 27004KT 9999 SCT035 SCT040CB 09/01 Q1015 A2999
TAF OITT 201100Z 2012/2118 34004MPS 7000 FEW035 SCT100 
     TEMPO 2115/2118 34004MPS FEW030CB SCT035 BKN090
       
OIYY 211230Z 06002KT 9999 FEW040 SCT190 21/M09 Q1015
TAF OIZH 201100Z 2012/2118 22005MPS 7000 NSC 
     TEMPO 2012/2015 22010MPS 4000 SA
       
OIFM 211230Z 25012KT 9999 SCT040 18/M03 Q1014 A2996
TAF OIFM 201100Z 2012/2118 33004MPS CAVOK 
     TEMPO 2109/2118 FEW030TCU SCT035 BKN100
       
TAF OIAA 201100Z 2012/2118 29004MPS 3000 DU HZ FEW040 
     TEMPO 2115/2118 34004MPS FEW030CB SCT035 SCT090
       
OIAW 211230Z 03004KT 5000 HZ FEW035 SCT040 23/10 Q1011
TAF OIAW 201100Z 2012/2118 01003MPS 4000 DU HZ FEW040 
     TEMPO 2112/2118 34004MPS FEW030CB SCT035 SCT090
       
TAF OIBK 201100Z 2012/2118 30008MPS 6000 NSC 
     BECMG 2018/2020 3000 HZ/BR 
     TEMPO 2021/2024 0800 FG SCT020 BKN090 
     BECMG 2104/2106 7000 
     TEMPO 2106/2112 30009G14MPS 4000 SA
       
OIBP 211230Z 26006KT 5000 HZ NSC 26/13 Q1008 A2979
OICC 211230Z 00000KT 9999 SCT045 15/M03 Q1015 A2998 NOSIG
TAF OICI 201100Z 2012/2118 14004MPS 7000 FEW030 BKN090 
     TEMPO 2018/2021 3000 BR
       
OICK 211230Z 10004KT 9999 FEW040 14/03 Q1016
OIFM 211230Z 25012KT 9999 SCT040 18/M03 Q1014 A2996
TAF OIFM 201100Z 2012/2118 33004MPS CAVOK 
     TEMPO 2109/2118 FEW030TCU SCT035 BKN100
       
OIGG 211230Z 05006KT 8000 FEW012CB BKN020 OVC080 10/09 Q1020
OIIE 211230Z 12004KT 9999 FEW040 SCT100 BKN200 13/M01 Q1016
TAF OIIE 201100Z 2012/2118 32005MPS CAVOK 
     TEMPO 2103/2115 13005MPS 7000 FEW035TCU SCT040 BKN100
       
OIII 211230Z 22008KT 7000 FEW035TCU SCT040 BKN090 13/M01 Q1016 A3001
TAF OIII 201100Z 2012/2118 33004MPS CAVOK 
     TEMPO 2106/2115 FEW035TCU SCT040 BKN100
       
OIKB 211230Z 21012KT 5000 HZ NSC 25/12 Q1010 A2984
TAF OIKB 201100Z 2012/2118 21004MPS 5000 HZ NSC 
     TEMPO 2012/2018 21009MPS 3000 SA 
     TEMPO 2020/2105 3000 HZ/BR
       
TAF OIKK 201100Z 2012/2118 30004MPS 7000 NSC
       
OIMM 211230Z 14006KT 2500 HZ SCT020 OVC200 12/06 Q1017 A3005
TAF OIMM 201100Z 2012/2118 14004MPS 6000 BKN010 BKN080 
     BECMG 2015/2017 4000 BR 
     TEMPO 2020/2103 1000 BR 
     BECMG 2104/2106 FEW035 SCT100
       
TAF OISL 201100Z 2012/2118 32003MPS CAVOK 
     TEMPO 2115/2118 14006MPS FEW035CB SCT040 SCT100
       
OISS 211230Z 00000KT 9999 FEW035CB SCT040 OVC090 19/M04 Q1016 A3002
TAF OISS 201100Z 2012/2118 21003MPS CAVOK
       
OITL 211230Z 07014KT 0500 R15/P2000N R33/P2000N FG SCT002 FEW040CB SCT090 BKN170 03/03 Q1014
OITR 211230Z 05008KT 9999 SCT035 BKN160 09/01 Q1014
TAF OITR 201100Z 2012/2118 34004MPS 7000 FEW035 SCT100
       
OITT 211230Z 27004KT 9999 SCT035 SCT040CB 09/01 Q1015 A2999
TAF OITT 201100Z 2012/2118 34004MPS 7000 FEW035 SCT100 
     TEMPO 2115/2118 34004MPS FEW030CB SCT035 BKN090
       
OIYY 211230Z 06002KT 9999 FEW040 SCT190 21/M09 Q1015
TAF OIZH 201100Z 2012/2118 22005MPS 7000 NSC 
     TEMPO 2012/2015 22010MPS 4000 SA
       
TAF OIAA 201100Z 2012/2118 29004MPS 3000 DU HZ FEW040 
     TEMPO 2115/2118 34004MPS FEW030CB SCT035 SCT090
       
OIAW 211230Z 03004KT 5000 HZ FEW035 SCT040 23/10 Q1011
TAF OIAW 201100Z 2012/2118 01003MPS 4000 DU HZ FEW040 
     TEMPO 2112/2118 34004MPS FEW030CB SCT035 SCT090
       
TAF OIBK 201100Z 2012/2118 30008MPS 6000 NSC 
     BECMG 2018/2020 3000 HZ/BR 
     TEMPO 2021/2024 0800 FG SCT020 BKN090 
     BECMG 2104/2106 7000 
     TEMPO 2106/2112 30009G14MPS 4000 SA
       
OIBP 211230Z 26006KT 5000 HZ NSC 26/13 Q1008 A2979
OICC 211230Z 00000KT 9999 SCT045 15/M03 Q1015 A2998 NOSIG
TAF OICI 201100Z 2012/2118 14004MPS 7000 FEW030 BKN090 
     TEMPO 2018/2021 3000 BR
       
OICK 211230Z 10004KT 9999 FEW040 14/03 Q1016
OIFM 211230Z 25012KT 9999 SCT040 18/M03 Q1014 A2996
TAF OIFM 201100Z 2012/2118 33004MPS CAVOK 
     TEMPO 2109/2118 FEW030TCU SCT035 BKN100
       
OIGG 211230Z 05006KT 8000 FEW012CB BKN020 OVC080 10/09 Q1020
OIIE 211230Z 12004KT 9999 FEW040 SCT100 BKN200 13/M01 Q1016
TAF OIIE 201100Z 2012/2118 32005MPS CAVOK 
     TEMPO 2103/2115 13005MPS 7000 FEW035TCU SCT040 BKN100
       
OIII 211230Z 22008KT 7000 FEW035TCU SCT040 BKN090 13/M01 Q1016 A3001
TAF OIII 201100Z 2012/2118 33004MPS CAVOK 
     TEMPO 2106/2115 FEW035TCU SCT040 BKN100
       
OIKB 211230Z 21012KT 5000 HZ NSC 25/12 Q1010 A2984
TAF OIKB 201100Z 2012/2118 21004MPS 5000 HZ NSC 
     TEMPO 2012/2018 21009MPS 3000 SA 
     TEMPO 2020/2105 3000 HZ/BR
       
TAF OIKK 201100Z 2012/2118 30004MPS 7000 NSC
       
OIMM 211230Z 14006KT 2500 HZ SCT020 OVC200 12/06 Q1017 A3005
TAF OIMM 201100Z 2012/2118 14004MPS 6000 BKN010 BKN080 
     BECMG 2015/2017 4000 BR 
     TEMPO 2020/2103 1000 BR 
     BECMG 2104/2106 FEW035 SCT100
       
TAF OISL 201100Z 2012/2118 32003MPS CAVOK 
     TEMPO 2115/2118 14006MPS FEW035CB SCT040 SCT100
       
OISS 211230Z 00000KT 9999 FEW035CB SCT040 OVC090 19/M04 Q1016 A3002
TAF OISS 201100Z 2012/2118 21003MPS CAVOK
       
OITL 211230Z 07014KT 0500 R15/P2000N R33/P2000N FG SCT002 FEW040CB SCT090 BKN170 03/03 Q1014
OITR 211230Z 05008KT 9999 SCT035 BKN160 09/01 Q1014
TAF OITR 201100Z 2012/2118 34004MPS 7000 FEW035 SCT100
       
OITT 211230Z 27004KT 9999 SCT035 SCT040CB 09/01 Q1015 A2999
TAF OITT 201100Z 2012/2118 34004MPS 7000 FEW035 SCT100 
     TEMPO 2115/2118 34004MPS FEW030CB SCT035 BKN090
       
OIYY 211230Z 06002KT 9999 FEW040 SCT190 21/M09 Q1015
TAF OIZH 201100Z 2012/2118 22005MPS 7000 NSC 
     TEMPO 2012/2015 22010MPS 4000 SA
       
TAF OICI 201100Z 2012/2118 14004MPS 7000 FEW030 BKN090 
     TEMPO 2018/2021 3000 BR
       
TAF OIKK 201100Z 2012/2118 30004MPS 7000 NSC
       
OICK 211230Z 10004KT 9999 FEW040 14/03 Q1016
TAF OIBK 201100Z 2012/2118 30008MPS 6000 NSC 
     BECMG 2018/2020 3000 HZ/BR 
     TEMPO 2021/2024 0800 FG SCT020 BKN090 
     BECMG 2104/2106 7000 
     TEMPO 2106/2112 30009G14MPS 4000 SA
       
TAF OISL 201100Z 2012/2118 32003MPS CAVOK 
     TEMPO 2115/2118 14006MPS FEW035CB SCT040 SCT100
       
OIMM 211230Z 14006KT 2500 HZ SCT020 OVC200 12/06 Q1017 A3005
TAF OIMM 201100Z 2012/2118 14004MPS 6000 BKN010 BKN080 
     BECMG 2015/2017 4000 BR 
     TEMPO 2020/2103 1000 BR 
     BECMG 2104/2106 FEW035 SCT100
       
OIII 211230Z 22008KT 7000 FEW035TCU SCT040 BKN090 13/M01 Q1016 A3001
TAF OIII 201100Z 2012/2118 33004MPS CAVOK 
     TEMPO 2106/2115 FEW035TCU SCT040 BKN100
       
OIGG 211230Z 05006KT 8000 FEW012CB BKN020 OVC080 10/09 Q1020
OICC 211230Z 00000KT 9999 SCT045 15/M03 Q1015 A2998 NOSIG
OISS 211230Z 00000KT 9999 FEW035CB SCT040 OVC090 19/M04 Q1016 A3002
TAF OISS 201100Z 2012/2118 21003MPS CAVOK
       
OITT 211230Z 27004KT 9999 SCT035 SCT040CB 09/01 Q1015 A2999
TAF OITT 201100Z 2012/2118 34004MPS 7000 FEW035 SCT100 
     TEMPO 2115/2118 34004MPS FEW030CB SCT035 BKN090
       
OITR 211230Z 05008KT 9999 SCT035 BKN160 09/01 Q1014
TAF OITR 201100Z 2012/2118 34004MPS 7000 FEW035 SCT100
       
OIYY 211230Z 06002KT 9999 FEW040 SCT190 21/M09 Q1015
TAF OIZH 201100Z 2012/2118 22005MPS 7000 NSC 
     TEMPO 2012/2015 22010MPS 4000 SA